Powrót do katalogu

STARLINK-37797

AktywnyŁącznośćVLEO
NORAD 100052·PAYLOAD·🇺🇸 United States

Wystrzelony Jul 14, 2026 z Cape Canaveral Space Force Station

Loading…

Następne Przeloty (najbliższe 24 godziny)

TLE

ŚwieżeSource: Space-Track

Epoka: Sep 14, 2026, 09:23 UTC

1 A0052U 26161AA  26257.39122533  .00020200  00000-0  60730-3 0  9996
2 A0052  53.1603  26.1844 0001544  80.0764 280.0412 15.34404557  9678

Śledź STARLINK-37797 w czasie rzeczywistym z AllMySat

Download on the App Store